Location: Dumpton Point
(51.3500°N, 1.4433°E)
Time: 19:50:03
(UTC+00:00)

Transit 2A - All Passes

Search period start: 17 April 2021 00:00
Search period end: 27 April 2021 00:00
Orbit: 602 x 957 km, 66.7° (Epoch: 17 April)

Date Brightness Start Highest point End Pass type
(mag) Time Alt. Az. Time Alt. Az. Time Alt. Az.
17 Apr - 07:51:05 10° SSW 07:55:44 58° ESE 08:00:06 10° NE daylight
17 Apr - 09:35:08 10° W 09:39:08 29° NW 09:42:59 10° NNE daylight
17 Apr - 11:21:54 10° NW 11:23:43 12° NNW 11:25:31 10° NNE daylight
17 Apr - 13:06:47 10° NNW 13:08:49 13° NNE 13:10:52 10° NE daylight
17 Apr - 14:49:18 10° NNW 14:53:17 33° NE 14:57:23 10° ESE daylight
17 Apr - 16:32:19 10° NW 16:36:31 45° WSW 16:40:55 10° SSE daylight
18 Apr - 07:17:12 10° S 07:21:38 40° ESE 07:25:48 10° NE daylight
18 Apr - 09:00:31 10° WSW 09:04:48 37° NW 09:08:54 10° NNE daylight
18 Apr - 10:46:55 10° NW 10:49:11 14° NNW 10:51:24 10° NNE daylight
18 Apr - 12:32:39 10° NNW 12:34:16 12° N 12:35:55 10° NNE daylight
18 Apr - 14:15:12 10° NNW 14:18:55 26° NE 14:22:44 10° E daylight
18 Apr - 15:58:03 10° NW 16:02:24 65° WSW 16:06:58 10° SSE daylight
19 Apr - 06:43:31 10° S 06:47:33 28° ESE 06:51:23 10° ENE daylight
19 Apr - 08:26:01 10° WSW 08:30:31 49° NW 08:34:48 10° NNE daylight
19 Apr - 10:11:57 10° WNW 10:14:40 15° NNW 10:17:19 10° NNE daylight
19 Apr - 11:58:23 10° NNW 11:59:42 11° N 12:01:01 10° NNE daylight
19 Apr - 13:41:09 10° NNW 13:44:32 21° NNE 13:47:59 10° E daylight
19 Apr - 15:23:50 10° NW 15:28:14 89° NE 15:32:52 10° SE daylight
19 Apr - 17:08:22 10° WNW 17:10:46 14° WSW 17:13:14 10° SW daylight
20 Apr - 06:10:07 10° SSE 06:13:32 20° ESE 06:16:49 10° ENE daylight
20 Apr - 07:51:38 10° SW 07:56:16 67° NW 08:00:40 10° NE daylight
20 Apr - 09:37:03 10° WNW 09:40:11 18° NNW 09:43:16 10° NNE daylight
20 Apr - 11:23:55 10° NNW 11:25:08 11° N 11:26:20 10° NNE daylight
20 Apr - 13:07:05 10° NNW 13:10:05 18° NNE 13:13:08 10° ENE daylight
20 Apr - 14:49:40 10° NW 14:54:02 65° NE 14:58:36 10° SE daylight
20 Apr - 16:33:28 10° WNW 16:36:47 21° WSW 16:40:13 10° SSW daylight
21 Apr - 05:37:09 10° SE 05:39:33 14° ESE 05:41:53 10° ENE daylight
21 Apr - 07:17:23 10° SW 07:22:04 88° ESE 07:26:30 10° NE daylight
21 Apr - 09:02:12 10° W 09:05:45 22° NNW 09:09:12 10° NNE daylight
21 Apr - 10:49:11 10° NNW 10:50:33 11° N 10:51:54 10° NNE daylight
21 Apr - 12:33:01 10° NNW 12:35:36 15° NNE 12:38:13 10° ENE daylight
21 Apr - 14:15:32 10° NNW 14:19:47 47° NE 14:24:13 10° ESE daylight
21 Apr - 15:58:55 10° NW 16:02:45 29° WSW 16:06:47 10° S daylight
22 Apr - 06:43:17 10° SSW 06:47:55 62° ESE 06:52:17 10° NE daylight
22 Apr - 08:27:28 10° W 08:31:21 27° NW 08:35:07 10° NNE daylight
22 Apr - 10:14:17 10° NW 10:15:58 12° N 10:17:41 10° NNE daylight
22 Apr - 11:58:56 10° NNW 12:01:05 13° NNE 12:03:15 10° NE daylight
22 Apr - 13:41:26 10° NNW 13:45:30 35° NE 13:49:42 10° ESE daylight
22 Apr - 15:24:31 10° NW 15:28:41 42° WSW 15:33:05 10° S daylight
23 Apr - 06:09:23 10° S 06:13:48 43° ESE 06:18:00 10° NE daylight
23 Apr - 07:52:49 10° WSW 07:57:00 35° NW 08:01:03 10° NNE daylight
23 Apr - 09:39:18 10° NW 09:41:26 13° NNW 09:43:33 10° NNE daylight
23 Apr - 11:24:49 10° NNW 11:26:32 12° N 11:28:16 10° NE daylight
23 Apr - 13:07:21 10° NNW 13:11:09 28° NE 13:15:03 10° E daylight
23 Apr - 14:50:13 10° NW 14:54:34 60° WSW 14:59:10 10° SSE daylight
24 Apr - 05:35:39 10° S 05:39:43 30° ESE 05:43:36 10° NE daylight
24 Apr - 07:18:17 10° WSW 07:22:43 46° NW 07:26:57 10° NNE daylight
24 Apr - 09:04:20 10° WNW 09:06:55 15° NNW 09:09:28 10° NNE daylight
24 Apr - 10:50:35 10° NNW 10:51:58 11° N 10:53:21 10° NNE daylight
24 Apr - 12:33:17 10° NNW 12:36:46 22° NNE 12:40:19 10° E daylight
24 Apr - 14:16:00 10° NW 14:20:25 85° SW 14:25:06 10° SE daylight
24 Apr - 16:00:42 10° W 16:02:55 14° WSW 16:05:11 10° SW daylight
25 Apr - 05:02:11 10° SSE 05:05:41 21° ESE 05:09:04 10° ENE daylight
25 Apr - 06:43:53 10° SW 06:48:27 63° NW 06:52:49 10° NNE daylight
25 Apr - 08:29:24 10° WNW 08:32:25 18° NNW 08:35:24 10° NNE daylight
25 Apr - 10:16:11 10° NNW 10:17:24 11° N 10:18:36 10° NNE daylight
25 Apr - 11:59:14 10° NNW 12:02:19 18° NNE 12:05:29 10° ENE daylight
25 Apr - 13:41:49 10° NW 13:46:13 69° NE 13:50:51 10° SE daylight
25 Apr - 15:25:43 10° WNW 15:28:56 20° WSW 15:32:17 10° SSW daylight
26 Apr - 04:29:07 10° SE 04:31:42 15° ESE 04:34:13 10° ENE daylight
26 Apr - 06:09:37 10° SW 06:14:15 87° NW 06:18:39 10° NE daylight
26 Apr - 07:54:33 10° W 07:57:59 21° NNW 08:01:20 10° NNE daylight
26 Apr - 09:41:31 10° NNW 09:42:49 11° N 09:44:06 10° NNE daylight
26 Apr - 11:25:10 10° NNW 11:27:51 16° NNE 11:30:34 10° ENE daylight
26 Apr - 13:07:41 10° NNW 13:11:59 50° NE 13:16:29 10° ESE daylight
26 Apr - 14:51:08 10° WNW 14:54:55 28° WSW 14:58:55 10° S daylight
